Starlink 5633

operational
NORAD ID: 55410 Int'l Des: 2023-014 Owner: SPXS Country: US Constellation: starlink
LEOCIRCULAR

About Starlink 5633

Description loading...

Live Position

Loading 3D Globe...

Upcoming Passes

Altitude History

Altitude vs Time

uPlot chart will show altitude changes over time

Two-Line Element Set

1 55410U 23014V 25347.61827768 -.00001128 00000-0 -86776-4 0 9993
2 55410 70.0000 301.3033 0002903 271.5129 88.5697 14.98323135158677
Epoch: Dec 13, 2025 • Age: 16 hours

Current Status

Altitude 595.4 km
Velocity 7.56 km/s
Sub-Earth Point -69.04°S, 10.91°E
Launch Date Jan 31, 2023
Age 2.8 years
Type internet

Technical Details

Classification Payload
Mass 305.00 kg
Dry Mass 290.00 kg
Total Mass 305.00 kg
Length 0.20 m
Diameter 2.80 m
Span 9.00 m
Shape Box + pan
Manufacturer SPXS
Bus Type Starlink
Phase Status In Orbit
Owner/State SPXS/US

Large Constellations

Loading constellations...